Weather in Slawa

Poland     51°52′51″N   16°04′21″E
temp.,
°C
wind,
m/s
gust,
m/s
humid.,
%
clouds,
%
prec.,
mm/h
press.,
hPa
HPBL,
m
21 april, wed
wed2123:00+9w238480 0.0 101347
02:00+7w33895 0.0 101355
05:00+6wnw36895 0.0 1013112
08:00+8wnw36835 0.0 1013240
11:00+13wnw45565 0.0 1013904
14:00+16wnw45415 0.0 10122146
17:00+16wnw464277 0.0 10112001
20:00+11w366563 0.0 1011107
22 april, thu
thu2223:00+8nw4976100 0.1 10141059
02:00+6nw4771100 0.2 1014613
05:00+3w511745 0.0 1016794
08:00+3w7107060 0.0 1017974
11:00+5w7959100 0.0 10181339
14:00+9w7105097 0.1 10171897
17:00+7nw6107499 1.0 10171146
20:00+5wnw35725 1.3 101888
23 april, fri
fri2323:00+3wnw367919 0.0 1020127
02:00+1w39880 0.0 1021194
05:00+1w4119718 0.0 1021332
08:00+3w61087100 0.0 1022593
11:00+5w61073100 0.0 10221082
14:00+10wnw71246100 0.1 10222403
17:00+11nnw6103490 0.1 10222321
20:00+7nnw2354100 0.1 102458
24 april, sat
sat2423:00+4sw226096 0.0 102512
02:00+2wnw33771 0.0 102551
05:00+1w35865 0.0 1025100
08:00+5w357028 0.0 1025319
11:00+10w565999 0.1 10241596
14:00+8w4762100 0.2 10231178
17:00+10wnw485670 0.0 10231524
20:00+7nw497110 0.2 1024432
25 april, sun
sun2523:00+3nnw397811 0.0 1026221
02:00+1nw24740 0.0 102671
05:00−1wnw23740 0.0 102741
08:00+4wnw34610 0.0 1027307
11:00+9nw45375 0.0 10271830
14:00+11nw35325 0.0 10252053
17:00+11nw24325 0.0 10242012
20:00+7ene0049100 0.0 102210